Location: Gaast
(52.9002°N, 5.8891°E)
Time: 14:04:00
(UTC+00:00)

ACS3 Solar Sail - Pass Details

Date: 25 January 2026
Orbit: 900 x 968 km, 97.2° (Epoch: 10 February)

Event Time Altitude Azimuth Distance (km) Brightness Sun altitude
Rises 03:24:19 0° 9° (N) 3,636 5.1 -36.5°
Reaches altitude 10° 03:27:01 10° 360° (N) 2,676 4.2 -36.2°
Enters shadow 03:27:33 12° 357° (N) 2,494 4.0 -36.1°
